Mount Pleasant, MI

9:27 PM EDT on May 25, 2017 (GMT -0400)
Mount Pleasant Municipal

Weather History for KMOP - August, 2013

Change the Weather History Date:

Thursday, August 29, 2013

  Actual Average (KAMN) Record (KAMN)
Temperature  
Mean Temperature 74 °F -  
Max Temperature 86 °F 79 °F 95 °F (1953)
Min Temperature 61 °F 56 °F 36 °F (1982)
Cooling Degree Days 8    
Growing Degree Days 24 (Base 50)    
Moisture  
Dew Point 64 °F    
Average Humidity 76    
Maximum Humidity 96    
Minimum Humidity 43    
Precipitation  
Precipitation 0.00 in - - ()
Sea Level Pressure  
Sea Level Pressure 30.06 in    
Wind  
Wind Speed 1 mph (SE)    
Max Wind Speed 7 mph    
Max Gust Speed -    
Visibility 6 miles    
Events Fog    
Averages and records for this station are not official NWS values.
T = Trace of Precipitation, MM = Missing Value Source: NWS Daily Summary

Daily Weather History Graph

Daily Weather History Graph

Search for Another Location

Airport or City:

Trip Planner

Search our weather history database for the weather conditions in past years. The results will help you decide how hot, cold, wet, or windy it might be!

Date:

Astronomy

Aug. 29, 2013 Rise Set
Actual Time 6:59 AM EDT 8:19 PM EDT
Civil Twilight 6:29 AM EDT 8:48 PM EDT
Nautical Twilight 5:53 AM EDT 9:24 PM EDT
Astronomical Twilight 5:15 AM EDT 10:02 PM EDT
Moon 12:45 AM EDT (8/29) 3:52 PM EDT (8/29)
Length of Visible Light 14h 19m
Length of Day
13h 19m
Last Quarter, 38% of the Moon is Illuminated
Aug 29
Last Quarter
Sep 5
New
Sep 12
First Quarter
Sep 19
Full
Sep 26
Last Quarter

Hourly Weather History & Observations

Time (EDT) Temp. Heat Index Dew Point Humidity Pressure Visibility Wind Dir Wind Speed Gust Speed Precip Events Conditions
12:16 AM 67.6 °F - 66.2 °F 95% 30.05 in 1.2 mi Calm Calm - N/A   Mist
12:36 AM 67.1 °F - 65.5 °F 95% 30.05 in 1.2 mi Calm Calm - N/A   Mist
12:55 AM 66.2 °F - 64.8 °F 95% 30.05 in 0.2 mi Calm Calm - N/A Fog Fog
1:16 AM 66.2 °F - 64.8 °F 95% 30.06 in 0.5 mi Calm Calm - N/A Fog Fog
1:36 AM 66.0 °F - 64.6 °F 95% 30.06 in 0.5 mi Calm Calm - N/A Fog Fog
1:56 AM 64.9 °F - 63.5 °F 95% 30.06 in 0.2 mi Calm Calm - N/A Fog Fog
2:16 AM 64.6 °F - 63.1 °F 95% 30.06 in 0.5 mi Calm Calm - N/A Fog Fog
2:36 AM 64.4 °F - 63.0 °F 95% 30.06 in 0.2 mi Calm Calm - N/A Fog Fog
2:56 AM 64.0 °F - 62.6 °F 95% 30.06 in 0.2 mi Calm Calm - N/A Fog Fog
3:16 AM 64.2 °F - 62.8 °F 95% 30.05 in 0.5 mi Calm Calm - N/A Fog Fog
3:35 AM 63.9 °F - 62.6 °F 96% 30.05 in 0.5 mi Calm Calm - N/A Fog Fog
3:56 AM 63.5 °F - 62.1 °F 95% 30.05 in 0.5 mi Calm Calm - N/A Fog Fog
4:16 AM 63.3 °F - 62.1 °F 96% 30.05 in 0.5 mi Calm Calm - N/A Fog Fog
4:36 AM 63.7 °F - 62.6 °F 96% 30.05 in 0.5 mi Calm Calm - N/A Fog Fog
4:56 AM 63.1 °F - 61.9 °F 96% 30.06 in 2.0 mi Calm Calm - N/A   Clear
5:16 AM 63.0 °F - 61.7 °F 96% 30.06 in 0.5 mi Calm Calm - N/A Fog Fog
5:36 AM 63.0 °F - 61.7 °F 96% 30.06 in 0.2 mi Calm Calm - N/A Fog Fog
5:56 AM 62.2 °F - 61.0 °F 96% 30.06 in 0.2 mi Calm Calm - N/A Fog Fog
6:16 AM 61.7 °F - 60.4 °F 96% 30.06 in 0.2 mi Calm Calm - N/A Fog Fog
6:36 AM 61.9 °F - 60.8 °F 96% 30.07 in 0.2 mi Calm Calm - N/A Fog Fog
6:56 AM 61.2 °F - 59.9 °F 96% 30.07 in 0.5 mi Calm Calm - N/A Fog Fog
7:15 AM 61.7 °F - 60.3 °F 95% 30.08 in 0.2 mi Calm Calm - N/A Fog Fog
7:36 AM 62.6 °F - 61.2 °F 95% 30.09 in 1.2 mi Calm Calm - N/A   Mist
7:56 AM 63.1 °F - 61.9 °F 96% 30.09 in 3.0 mi Calm Calm - N/A   Clear
8:15 AM 65.3 °F - 64.0 °F 96% 30.09 in 5.0 mi Calm Calm - N/A   Clear
8:36 AM 67.1 °F - 65.5 °F 95% 30.09 in 5.0 mi Calm Calm - N/A   Clear
8:56 AM 68.4 °F - 66.9 °F 95% 30.09 in 7.0 mi Calm Calm - N/A   Clear
9:15 AM 69.8 °F - 68.0 °F 94% 30.10 in 10.0 mi Calm Calm - N/A   Clear
9:36 AM 70.9 °F - 68.7 °F 93% 30.10 in 10.0 mi Calm Calm - N/A   Clear
9:56 AM 71.8 °F - 68.9 °F 91% 30.10 in 10.0 mi Calm Calm - N/A   Clear
10:16 AM 73.0 °F - 69.1 °F 87% 30.10 in 10.0 mi Calm Calm - N/A   Clear
10:36 AM 74.5 °F - 68.7 °F 82% 30.11 in 10.0 mi Calm Calm - N/A   Clear
10:56 AM 75.7 °F - 66.2 °F 72% 30.11 in 10.0 mi Calm Calm - N/A   Clear
11:16 AM 78.8 °F - 66.7 °F 66% 30.11 in 10.0 mi Calm Calm - N/A   Clear
11:36 AM 80.4 °F 81.8 °F 63.3 °F 56% 30.11 in 10.0 mi Calm Calm - N/A   Clear
11:56 AM 81.3 °F 82.3 °F 62.4 °F 52% 30.10 in 10.0 mi SSE 3.5 mph - N/A   Clear
12:16 PM 81.9 °F 83.1 °F 63.1 °F 53% 30.10 in 10.0 mi ESE 3.5 mph - N/A   Clear
12:36 PM 81.9 °F 82.9 °F 62.4 °F 52% 30.09 in 10.0 mi East 3.5 mph - N/A   Clear
12:56 PM 82.4 °F 83.2 °F 62.1 °F 50% 30.09 in 10.0 mi Calm Calm - N/A   Clear
1:16 PM 83.1 °F 83.9 °F 62.1 °F 49% 30.09 in 10.0 mi ESE 3.5 mph - N/A   Clear
1:36 PM 83.5 °F 83.7 °F 60.6 °F 46% 30.09 in 10.0 mi Calm Calm - N/A   Clear
1:56 PM 84.7 °F 84.6 °F 60.3 °F 43% 30.09 in 10.0 mi Calm Calm - N/A   Clear
2:16 PM 84.4 °F 84.6 °F 60.6 °F 45% 30.08 in 10.0 mi ESE 3.5 mph - N/A   Clear
2:35 PM 84.7 °F 84.8 °F 60.4 °F 44% 30.08 in 10.0 mi East 3.5 mph - N/A   Clear
2:56 PM 85.1 °F 85.2 °F 60.8 °F 44% 30.07 in 10.0 mi East 3.5 mph - N/A   Clear
3:16 PM 86.0 °F 86.3 °F 62.1 °F 44% 30.07 in 10.0 mi ESE 4.6 mph - N/A   Clear
3:35 PM 85.1 °F 85.7 °F 62.4 °F 46% 30.06 in 10.0 mi SSE 4.6 mph - N/A   Clear
3:56 PM 85.3 °F 85.9 °F 62.2 °F 46% 30.06 in 10.0 mi East 5.8 mph - N/A   Clear
4:16 PM 85.6 °F 86.1 °F 62.2 °F 45% 30.05 in 10.0 mi Calm Calm - N/A   Clear
4:35 PM 85.3 °F 85.4 °F 61.2 °F 44% 30.05 in 10.0 mi East 4.6 mph - N/A   Clear
4:56 PM 86.0 °F 86.1 °F 61.3 °F 43% 30.05 in 10.0 mi ESE 6.9 mph - N/A   Clear
5:16 PM 85.3 °F 85.4 °F 61.2 °F 44% 30.04 in 10.0 mi SE 3.5 mph - N/A   Clear
5:36 PM 84.9 °F 85.9 °F 63.3 °F 48% 30.04 in 10.0 mi ESE 5.8 mph - N/A   Clear
5:56 PM 84.4 °F 85.4 °F 63.1 °F 49% 30.04 in 10.0 mi SSE 4.6 mph - N/A   Clear
6:16 PM 84.2 °F 85.4 °F 63.5 °F 50% 30.03 in 10.0 mi Calm Calm - N/A   Clear
6:36 PM 84.2 °F 85.6 °F 64.0 °F 51% 30.03 in 10.0 mi SSE 3.5 mph - N/A   Clear
6:56 PM 83.5 °F 84.7 °F 63.5 °F 51% 30.03 in 10.0 mi SSE 3.5 mph - N/A   Clear
7:16 PM 82.9 °F 84.4 °F 64.2 °F 53% 30.03 in 10.0 mi SE 3.5 mph - N/A   Clear
7:36 PM 81.7 °F 83.5 °F 65.3 °F 57% 30.04 in 10.0 mi SSE 3.5 mph - N/A   Clear
7:56 PM 80.8 °F 82.6 °F 65.5 °F 59% 30.04 in 10.0 mi Calm Calm - N/A   Clear
8:16 PM 76.1 °F - 67.1 °F 74% 30.04 in 10.0 mi Calm Calm - N/A   Clear
8:36 PM 73.8 °F - 68.5 °F 84% 30.04 in 10.0 mi Calm Calm - N/A   Clear
8:56 PM 72.9 °F - 69.1 °F 88% 30.03 in 10.0 mi Calm Calm - N/A   Clear
9:16 PM 71.8 °F - 68.4 °F 89% 30.03 in 10.0 mi Calm Calm - N/A   Clear
9:36 PM 71.2 °F - 67.8 °F 89% 30.03 in 10.0 mi Calm Calm - N/A   Clear
9:56 PM 70.5 °F - 68.2 °F 92% 30.03 in 7.0 mi Calm Calm - N/A   Clear
10:16 PM 70.0 °F - 67.8 °F 93% 30.02 in 7.0 mi Calm Calm - N/A   Clear
10:36 PM 69.1 °F - 67.1 °F 93% 30.02 in 7.0 mi Calm Calm - N/A   Clear
10:56 PM 69.3 °F - 66.9 °F 92% 30.01 in 10.0 mi Calm Calm - N/A   Clear
11:16 PM 68.9 °F - 66.7 °F 93% 30.01 in 7.0 mi Calm Calm - N/A   Clear
11:36 PM 68.0 °F - 66.2 °F 94% 30.01 in 3.0 mi Calm Calm - N/A   Clear
11:56 PM 68.0 °F - 66.2 °F 94% 30.01 in 2.5 mi Calm Calm - N/A   Clear